WXM80 ListenWXM80 Stop

You find our weather info also at:

UK Metoffice

WeatherCloud

Weather Underground

Northeastern Weather Network

AWEKAS

Citizen Weather Observer Program (CWOP)

HAMweather, WeatherForYou, PWS Weather


Weather Underground History page Text

Daily Summary for March 6, 2017 Units:  English    Metric   Both
« Previous Day
Next Day »
Daily Weekly Monthly Yearly Custom
  High: Low: Average:
Temperature: 43.0 °F 24.2 °F 34.1 °F
Dew Point: 32.9 °F 6.6 °F 17 °F
Humidity: 77 % 34 % 50 %
Wind Speed: 5.9 mph 0.0 mph 1.8 mph
Wind Gust: 9.2 mph - -
Wind:- - SE
Pressure: 30.52 in 30.40 in -
Precipitation: 0.00 in    
Historical Graphs
 
 
Tabular Data for March 6, 2017
Time Temperature Dew Point Pressure Wind Wind Speed Wind Gust Humidity Rainfall Rate (Hourly)
00:02 28.2 °F 7.5 °F 30.51 in NNW 3.6 mph 5.8 mph 41 % 0.00 in
00:07 28.1 °F 8.4 °F 30.50 in North 0.1 mph 1.2 mph 43 % 0.00 in
00:12 28.0 °F 8.4 °F 30.50 in NNW 2.3 mph 3.5 mph 43 % 0.00 in
00:17 27.9 °F 8.3 °F 30.51 in NW 1.4 mph 3.5 mph 43 % 0.00 in
00:23 27.8 °F 8.2 °F 30.51 in WNW 3.5 mph 6.0 mph 43 % 0.00 in
00:28 27.7 °F 8.1 °F 30.51 in WNW 0.6 mph 2.3 mph 43 % 0.00 in
00:33 27.7 °F 8.1 °F 30.51 in WNW 1.7 mph 3.5 mph 43 % 0.00 in
00:38 27.6 °F 8.0 °F 30.51 in WNW 0.2 mph 1.2 mph 43 % 0.00 in
00:43 27.5 °F 7.9 °F 30.51 in WNW 0.5 mph 3.5 mph 43 % 0.00 in
00:48 27.4 °F 7.8 °F 30.51 in WNW 1.0 mph 3.0 mph 43 % 0.00 in
00:53 27.2 °F 7.6 °F 30.50 in WNW 1.0 mph 2.0 mph 43 % 0.00 in
00:58 27.1 °F 8.0 °F 30.51 in WNW 1.2 mph 1.2 mph 44 % 0.00 in
01:03 27.0 °F 8.0 °F 30.51 in Calm   4.0 mph 44 % 0.00 in
01:08 26.8 °F 7.8 °F 30.51 in WNW 1.0 mph 3.0 mph 44 % 0.00 in
01:13 26.7 °F 7.2 °F 30.50 in NNW 2.0 mph 5.0 mph 43 % 0.00 in
01:18 26.6 °F 6.6 °F 30.51 in NNE 1.0 mph 4.0 mph 42 % 0.00 in
01:23 26.5 °F 7.0 °F 30.51 in Calm   2.0 mph 43 % 0.00 in
01:28 26.5 °F 7.0 °F 30.50 in Calm   2.0 mph 43 % 0.00 in
01:33 26.4 °F 6.9 °F 30.51 in North 0.5 mph 3.0 mph 43 % 0.00 in
01:38 26.3 °F 6.8 °F 30.50 in NNW 2.0 mph 4.0 mph 43 % 0.00 in
01:43 26.2 °F 7.7 °F 30.50 in Calm   2.0 mph 45 % 0.00 in
01:53 25.9 °F 7.5 °F 30.50 in West 1.0 mph 4.0 mph 45 % 0.00 in
01:58 25.8 °F 7.8 °F 30.50 in West 2.1 mph 2.3 mph 46 % 0.00 in
02:03 25.7 °F 8.2 °F 30.50 in West 0.1 mph 2.3 mph 47 % 0.00 in
02:08 25.6 °F 8.6 °F 30.50 in Calm     48 % 0.00 in
02:13 25.5 °F 8.5 °F 30.50 in Calm     48 % 0.00 in
02:18 25.4 °F 8.4 °F 30.50 in WNW 0.7 mph 2.3 mph 48 % 0.00 in
02:23 25.3 °F 8.8 °F 30.50 in WNW 1.1 mph 2.3 mph 49 % 0.00 in
02:29 25.2 °F 8.7 °F 30.50 in WNW 1.0 mph 3.5 mph 49 % 0.00 in
02:34 25.2 °F 8.7 °F 30.50 in WNW 0.4 mph 2.3 mph 49 % 0.00 in
02:39 25.1 °F 9.0 °F 30.50 in Calm     50 % 0.00 in
02:44 25.1 °F 8.6 °F 30.49 in WNW 0.4 mph 2.3 mph 49 % 0.00 in
02:49 25.0 °F 8.5 °F 30.49 in WNW 0.2 mph 2.3 mph 49 % 0.00 in
02:54 24.9 °F 8.4 °F 30.49 in WNW 1.1 mph 2.3 mph 49 % 0.00 in
02:59 24.9 °F 8.4 °F 30.49 in Calm     49 % 0.00 in
03:04 24.9 °F 8.4 °F 30.48 in WNW 0.1 mph   49 % 0.00 in
03:09 24.9 °F 9.3 °F 30.48 in WNW 0.1 mph 1.2 mph 51 % 0.00 in
03:14 24.8 °F 10.1 °F 30.48 in Calm   1.0 mph 53 % 0.00 in
03:19 24.7 °F 10.0 °F 30.48 in WNW 1.0 mph 3.5 mph 53 % 0.00 in
03:24 24.5 °F 8.5 °F 30.48 in North 2.8 mph 4.6 mph 50 % 0.00 in
03:29 24.4 °F 9.3 °F 30.49 in NNE 1.3 mph 3.5 mph 52 % 0.00 in
03:35 24.2 °F 9.5 °F 30.48 in NNE 2.6 mph 3.5 mph 53 % 0.00 in
03:40 24.2 °F 8.7 °F 30.48 in NNE 5.4 mph 7.0 mph 51 % 0.00 in
03:45 24.3 °F 9.2 °F 30.49 in NNE 3.9 mph 5.8 mph 52 % 0.00 in
03:50 24.4 °F 9.3 °F 30.49 in NNE 3.5 mph 8.1 mph 52 % 0.00 in
03:52 24.5 °F 8.9 °F 30.49 in NNE 2.5 mph 3.5 mph 51 % 0.00 in
03:57 24.6 °F 9.0 °F 30.50 in North 4.5 mph 8.1 mph 51 % 0.00 in
04:02 24.8 °F 8.8 °F 30.50 in North 2.4 mph 5.8 mph 50 % 0.00 in
04:07 24.9 °F 8.4 °F 30.50 in North 2.5 mph 4.6 mph 49 % 0.00 in
04:12 25.1 °F 8.6 °F 30.50 in NNE 3.4 mph 5.0 mph 49 % 0.00 in
04:17 25.2 °F 8.7 °F 30.50 in NNE 3.2 mph 4.0 mph 49 % 0.00 in
04:22 25.2 °F 8.2 °F 30.50 in NNE 4.0 mph 5.8 mph 48 % 0.00 in
04:27 25.3 °F 8.3 °F 30.50 in NNE 4.0 mph 5.8 mph 48 % 0.00 in
04:32 25.3 °F 8.8 °F 30.50 in NNE 1.5 mph 3.5 mph 49 % 0.00 in
04:37 25.3 °F 8.8 °F 30.51 in North 1.0 mph 3.0 mph 49 % 0.00 in
04:42 25.3 °F 9.2 °F 30.51 in North 0.6 mph 2.3 mph 50 % 0.00 in
04:47 25.3 °F 9.7 °F 30.51 in North 0.4 mph 3.5 mph 51 % 0.00 in
04:53 25.3 °F 9.7 °F 30.51 in North 1.1 mph 3.0 mph 51 % 0.00 in
04:58 25.3 °F 9.2 °F 30.51 in North 0.1 mph 3.5 mph 50 % 0.00 in
05:03 25.2 °F 9.1 °F 30.51 in North 0.2 mph 1.2 mph 50 % 0.00 in
05:08 25.2 °F 9.1 °F 30.51 in North 0.8 mph 2.3 mph 50 % 0.00 in
05:13 25.1 °F 9.5 °F 30.51 in North 0.3 mph 2.0 mph 51 % 0.00 in
05:14 25.1 °F 9.5 °F 30.51 in North 1.7 mph 3.5 mph 51 % 0.00 in
05:19 25.1 °F 9.9 °F 30.51 in North 0.2 mph 1.2 mph 52 % 0.00 in
05:24 25.0 °F 9.8 °F 30.51 in North 0.4 mph 2.3 mph 52 % 0.00 in
05:30 24.9 °F 9.7 °F 30.51 in North 0.4 mph 3.5 mph 52 % 0.00 in
05:35 24.8 °F 9.6 °F 30.51 in North 0.4 mph 1.2 mph 52 % 0.00 in
05:40 24.7 °F 9.5 °F 30.51 in NNW 0.4 mph 3.5 mph 52 % 0.00 in
05:45 24.6 °F 9.5 °F 30.51 in NNW 0.2 mph 1.2 mph 52 % 0.00 in
05:50 24.5 °F 9.4 °F 30.51 in NNW 0.7 mph 3.0 mph 52 % 0.00 in
05:55 24.5 °F 9.4 °F 30.51 in Calm     52 % 0.00 in
06:00 24.4 °F 9.3 °F 30.51 in Calm   2.3 mph 52 % 0.00 in
06:05 24.3 °F 9.2 °F 30.51 in Calm     52 % 0.00 in
06:07 24.3 °F 9.2 °F 30.51 in NNW 0.1 mph 1.0 mph 52 % 0.00 in
06:12 24.2 °F 8.7 °F 30.51 in NNW 0.8 mph 2.3 mph 51 % 0.00 in
06:17 24.2 °F 8.7 °F 30.51 in NNW 1.9 mph 3.5 mph 51 % 0.00 in
06:22 24.2 °F 8.7 °F 30.51 in NNW 0.3 mph 3.5 mph 51 % 0.00 in
06:27 24.3 °F 8.7 °F 30.51 in North 1.2 mph 3.5 mph 51 % 0.00 in
06:32 24.3 °F 8.7 °F 30.52 in North 2.0 mph 3.5 mph 51 % 0.00 in
06:37 24.4 °F 8.4 °F 30.51 in NNW 0.3 mph 2.3 mph 50 % 0.00 in
06:42 24.5 °F 8.5 °F 30.51 in NNW 2.1 mph 3.5 mph 50 % 0.00 in
06:47 24.7 °F 8.7 °F 30.51 in NNW 1.4 mph 2.3 mph 50 % 0.00 in
06:52 24.9 °F 8.9 °F 30.51 in North 1.3 mph 2.3 mph 50 % 0.00 in
06:57 25.2 °F 9.6 °F 30.51 in North 2.6 mph 4.0 mph 51 % 0.00 in
07:03 25.6 °F 9.5 °F 30.52 in North 1.4 mph 2.3 mph 50 % 0.00 in
07:08 26.0 °F 10.3 °F 30.52 in NNE 2.8 mph 3.5 mph 51 % 0.00 in
07:13 26.4 °F 10.3 °F 30.52 in NNE 1.2 mph 2.3 mph 50 % 0.00 in
07:18 27.0 °F 10.8 °F 30.52 in NNE 3.2 mph 4.6 mph 50 % 0.00 in
07:23 27.5 °F 11.3 °F 30.51 in NNE 1.0 mph 3.0 mph 50 % 0.00 in
07:28 28.0 °F 11.3 °F 30.51 in NNE 2.0 mph 4.0 mph 49 % 0.00 in
07:33 28.4 °F 11.7 °F 30.51 in NNE 1.0 mph 4.0 mph 49 % 0.00 in
07:38 29.0 °F 11.7 °F 30.51 in NNE 0.7 mph 2.3 mph 48 % 0.00 in
07:43 29.4 °F 12.5 °F 30.51 in NNE 2.0 mph 4.0 mph 49 % 0.00 in
07:48 29.8 °F 12.5 °F 30.51 in NE 1.5 mph 3.5 mph 48 % 0.00 in
07:53 30.1 °F 11.8 °F 30.51 in NE 1.0 mph 5.0 mph 46 % 0.00 in
07:58 30.4 °F 13.0 °F 30.51 in NNE 3.0 mph 4.0 mph 48 % 0.00 in
08:03 30.7 °F 12.8 °F 30.51 in NNE 2.5 mph 3.5 mph 47 % 0.00 in
08:08 31.0 °F 13.1 °F 30.51 in NE 2.3 mph 3.5 mph 47 % 0.00 in
08:13 31.1 °F 11.7 °F 30.51 in NE 0.7 mph 3.5 mph 44 % 0.00 in
08:18 31.4 °F 12.5 °F 30.51 in NE 0.5 mph 2.0 mph 45 % 0.00 in
08:23 31.8 °F 12.3 °F 30.51 in Calm   1.2 mph 44 % 0.00 in
08:28 32.0 °F 11.5 °F 30.51 in NE 3.2 mph 5.0 mph 42 % 0.00 in
08:33 32.0 °F 10.9 °F 30.51 in East 2.3 mph 3.5 mph 41 % 0.00 in
08:39 31.7 °F 10.1 °F 30.51 in ENE 2.2 mph 4.6 mph 40 % 0.00 in
08:44 31.8 °F 11.3 °F 30.51 in NE 1.6 mph 3.5 mph 42 % 0.00 in
08:49 31.8 °F 11.3 °F 30.51 in ENE 2.1 mph 3.5 mph 42 % 0.00 in
08:54 31.7 °F 10.7 °F 30.51 in ENE 0.8 mph 3.5 mph 41 % 0.00 in
08:59 31.4 °F 10.9 °F 30.51 in ENE 0.8 mph 3.5 mph 42 % 0.00 in
09:04 31.5 °F 11.5 °F 30.51 in ENE 2.1 mph 3.5 mph 43 % 0.00 in
09:09 31.5 °F 11.0 °F 30.51 in ENE 4.6 mph 4.6 mph 42 % 0.00 in
09:14 31.4 °F 10.9 °F 30.52 in ENE 2.0 mph 4.0 mph 42 % 0.00 in
09:19 31.7 °F 11.7 °F 30.52 in ENE 2.7 mph 5.0 mph 43 % 0.00 in
09:24 32.3 °F 11.7 °F 30.52 in ENE 0.7 mph 3.5 mph 42 % 0.00 in
09:29 32.6 °F 11.5 °F 30.52 in ESE 2.5 mph 4.0 mph 41 % 0.00 in
09:34 32.9 °F 11.2 °F 30.52 in ENE 1.7 mph 3.0 mph 40 % 0.00 in
09:39 33.4 °F 11.1 °F 30.52 in ENE 0.8 mph 3.5 mph 39 % 0.00 in
09:45 33.8 °F 11.4 °F 30.52 in NE 1.6 mph 3.5 mph 39 % 0.00 in
09:50 33.9 °F 11.5 °F 30.52 in NNE 1.3 mph 4.0 mph 39 % 0.00 in
09:55 34.1 °F 11.7 °F 30.52 in NE 0.5 mph 2.0 mph 39 % 0.00 in
10:00 34.7 °F 12.8 °F 30.52 in ENE 1.9 mph 4.6 mph 40 % 0.00 in
10:05 34.6 °F 11.6 °F 30.52 in ENE 3.0 mph 3.5 mph 38 % 0.00 in
10:10 34.4 °F 12.5 °F 30.51 in ENE 0.7 mph 2.3 mph 40 % 0.00 in
10:15 34.9 °F 13.0 °F 30.51 in NE 2.4 mph 4.6 mph 40 % 0.00 in
10:20 35.0 °F 12.5 °F 30.51 in NE 1.9 mph 3.5 mph 39 % 0.00 in
10:25 35.7 °F 13.7 °F 30.51 in NE 1.4 mph 3.5 mph 40 % 0.00 in
10:30 36.6 °F 13.9 °F 30.51 in North 2.9 mph 3.5 mph 39 % 0.00 in
10:35 37.5 °F 14.2 °F 30.51 in North 2.8 mph 6.0 mph 38 % 0.00 in
10:40 38.2 °F 14.2 °F 30.51 in NNE 2.8 mph 4.0 mph 37 % 0.00 in
10:45 38.6 °F 13.9 °F 30.51 in NNE 3.0 mph 5.0 mph 36 % 0.00 in
10:51 38.9 °F 13.5 °F 30.51 in NNE 3.3 mph 4.0 mph 35 % 0.00 in
10:56 39.1 °F 14.4 °F 30.51 in NE 3.1 mph 4.6 mph 36 % 0.00 in
11:01 39.5 °F 14.7 °F 30.51 in NE 2.3 mph 4.0 mph 36 % 0.00 in
11:06 39.7 °F 14.2 °F 30.50 in NNE 2.3 mph 3.5 mph 35 % 0.00 in
11:11 39.5 °F 13.4 °F 30.50 in ENE 1.7 mph 3.5 mph 34 % 0.00 in
11:16 39.4 °F 15.9 °F 30.50 in NE 1.8 mph 3.5 mph 38 % 0.00 in
11:21 40.1 °F 13.9 °F 30.50 in NE 1.5 mph 3.5 mph 34 % 0.00 in
11:26 39.0 °F 13.0 °F 30.50 in NNE 1.8 mph 3.5 mph 34 % 0.00 in
11:31 39.3 °F 15.8 °F 30.49 in ENE 2.4 mph 3.5 mph 38 % 0.00 in
11:34 39.7 °F 16.1 °F 30.49 in NE 3.1 mph 5.8 mph 38 % 0.00 in
11:39 40.1 °F 17.1 °F 30.49 in NE 2.7 mph 3.5 mph 39 % 0.00 in
11:44 40.8 °F 18.3 °F 30.49 in NNE 2.8 mph 4.0 mph 40 % 0.00 in
11:49 41.5 °F 17.7 °F 30.49 in NNE 1.5 mph 3.5 mph 38 % 0.00 in
11:55 41.6 °F 18.4 °F 30.48 in NNE 3.2 mph 4.6 mph 39 % 0.00 in
12:00 41.5 °F 17.7 °F 30.48 in ENE 2.0 mph 3.5 mph 38 % 0.00 in
12:05 41.5 °F 18.4 °F 30.48 in NNW 3.8 mph 5.8 mph 39 % 0.00 in
12:10 41.2 °F 16.9 °F 30.48 in ENE 3.0 mph 4.6 mph 37 % 0.00 in
12:15 40.7 °F 18.2 °F 30.47 in ENE 2.5 mph 4.6 mph 40 % 0.00 in
12:20 40.5 °F 17.5 °F 30.47 in NNE 3.2 mph 5.8 mph 39 % 0.00 in
12:25 40.8 °F 19.5 °F 30.47 in NNE 3.8 mph 5.8 mph 42 % 0.00 in
12:30 41.0 °F 19.1 °F 30.47 in NNW 3.9 mph 6.0 mph 41 % 0.00 in
12:35 41.1 °F 19.2 °F 30.46 in NE 2.0 mph 3.5 mph 41 % 0.00 in
12:40 41.1 °F 19.7 °F 30.46 in North 2.9 mph 5.0 mph 42 % 0.00 in
12:46 41.8 °F 20.9 °F 30.45 in NNE 2.5 mph 3.5 mph 43 % 0.00 in
12:51 42.5 °F 22.6 °F 30.45 in NE 2.2 mph 3.5 mph 45 % 0.00 in
12:56 42.7 °F 21.2 °F 30.45 in NNE 2.4 mph 4.0 mph 42 % 0.00 in
13:01 43.0 °F 21.4 °F 30.45 in North 2.9 mph 4.6 mph 42 % 0.00 in
13:06 42.8 °F 20.7 °F 30.45 in North 0.4 mph 5.8 mph 41 % 0.00 in
13:11 42.8 °F 20.1 °F 30.44 in North 0.8 mph 3.5 mph 40 % 0.00 in
13:16 42.9 °F 20.2 °F 30.44 in North 2.2 mph 3.5 mph 40 % 0.00 in
13:21 43.0 °F 19.7 °F 30.44 in NNE 2.2 mph 4.6 mph 39 % 0.00 in
13:26 42.7 °F 18.8 °F 30.44 in NE 2.9 mph 4.0 mph 38 % 0.00 in
13:31 42.5 °F 19.8 °F 30.43 in NNE 2.2 mph 3.5 mph 40 % 0.00 in
13:36 42.9 °F 20.2 °F 30.43 in NNE 3.3 mph 4.6 mph 40 % 0.00 in
13:41 42.9 °F 19.6 °F 30.43 in NE 3.0 mph 6.9 mph 39 % 0.00 in
13:46 42.5 °F 19.8 °F 30.43 in NE 3.7 mph 4.6 mph 40 % 0.00 in
13:51 42.4 °F 19.8 °F 30.43 in NE 2.1 mph 3.5 mph 40 % 0.00 in
13:57 42.6 °F 20.5 °F 30.43 in NE 2.2 mph 3.5 mph 41 % 0.00 in
14:02 42.6 °F 18.7 °F 30.42 in East 2.4 mph 4.6 mph 38 % 0.00 in
14:07 42.7 °F 18.2 °F 30.42 in ENE 1.4 mph 3.5 mph 37 % 0.00 in
14:12 42.7 °F 17.6 °F 30.42 in ENE 3.8 mph 4.6 mph 36 % 0.00 in
14:17 42.5 °F 17.4 °F 30.42 in NNE 4.5 mph 5.8 mph 36 % 0.00 in
14:22 42.5 °F 17.4 °F 30.42 in NNE 3.4 mph 6.0 mph 36 % 0.00 in
14:27 42.5 °F 18.6 °F 30.42 in NE 2.4 mph 4.6 mph 38 % 0.00 in
14:32 42.3 °F 19.1 °F 30.42 in NE 2.7 mph 4.6 mph 39 % 0.00 in
14:37 41.9 °F 19.3 °F 30.42 in North 2.7 mph 5.8 mph 40 % 0.00 in
14:42 41.8 °F 18.0 °F 30.42 in NE 2.6 mph 3.5 mph 38 % 0.00 in
14:47 41.8 °F 16.8 °F 30.42 in NNE 3.2 mph 4.6 mph 36 % 0.00 in
14:52 41.7 °F 16.7 °F 30.42 in North 3.0 mph 4.6 mph 36 % 0.00 in
14:57 41.7 °F 16.7 °F 30.42 in NNE 2.6 mph 4.0 mph 36 % 0.00 in
15:02 41.4 °F 16.4 °F 30.42 in NNE 2.0 mph 3.5 mph 36 % 0.00 in
15:07 41.3 °F 15.7 °F 30.42 in NNW 3.4 mph 4.6 mph 35 % 0.00 in
15:13 41.3 °F 15.7 °F 30.42 in NNE 2.6 mph 3.5 mph 35 % 0.00 in
15:18 41.2 °F 16.9 °F 30.42 in North 2.5 mph 3.5 mph 37 % 0.00 in
15:23 41.0 °F 16.0 °F 30.42 in NNE 2.9 mph 4.6 mph 36 % 0.00 in
15:28 40.9 °F 16.6 °F 30.42 in NNE 1.0 mph 3.0 mph 37 % 0.00 in
15:33 41.0 °F 17.3 °F 30.42 in NNE 1.0 mph 3.0 mph 38 % 0.00 in
15:38 40.9 °F 16.0 °F 30.42 in NNE 1.8 mph 3.5 mph 36 % 0.00 in
15:43 40.7 °F 16.4 °F 30.41 in NNE 1.0 mph 3.0 mph 37 % 0.00 in
15:48 40.6 °F 16.9 °F 30.41 in NNE 1.3 mph 3.5 mph 38 % 0.00 in
15:53 40.6 °F 16.9 °F 30.41 in Calm   2.0 mph 38 % 0.00 in
15:58 40.5 °F 16.9 °F 30.41 in Calm   1.2 mph 38 % 0.00 in
16:03 40.5 °F 15.6 °F 30.41 in Calm     36 % 0.00 in
16:08 40.5 °F 16.2 °F 30.41 in NE 1.7 mph 3.5 mph 37 % 0.00 in
16:13 40.5 °F 16.9 °F 30.41 in Calm     38 % 0.00 in
16:18 40.6 °F 17.5 °F 30.41 in SSE 0.2 mph 2.3 mph 39 % 0.00 in
16:23 40.7 °F 18.2 °F 30.41 in West 0.2 mph 1.2 mph 40 % 0.00 in
16:28 40.9 °F 19.0 °F 30.40 in SSW 2.2 mph 5.8 mph 41 % 0.00 in
16:34 41.2 °F 19.8 °F 30.41 in South 0.7 mph 4.6 mph 42 % 0.00 in
16:39 41.3 °F 19.9 °F 30.40 in SSW 1.7 mph 3.5 mph 42 % 0.00 in
16:44 41.4 °F 20.0 °F 30.41 in SSW 5.9 mph 9.2 mph 42 % 0.00 in
16:47 41.4 °F 20.0 °F 30.41 in SW 3.4 mph 6.9 mph 42 % 0.00 in
16:52 41.3 °F 19.9 °F 30.41 in SSW 2.3 mph 4.6 mph 42 % 0.00 in
16:57 41.2 °F 20.9 °F 30.41 in SSW 2.9 mph 5.0 mph 44 % 0.00 in
16:58 41.2 °F 20.9 °F 30.41 in SSW 4.9 mph 8.1 mph 44 % 0.00 in
17:01 41.1 °F 20.8 °F 30.41 in SSW 4.3 mph 5.8 mph 44 % 0.00 in
17:06 40.7 °F 20.5 °F 30.41 in SSW 0.9 mph 5.8 mph 44 % 0.00 in
17:11 40.5 °F 20.8 °F 30.41 in SSW 3.3 mph 5.8 mph 45 % 0.00 in
17:16 40.3 °F 21.1 °F 30.41 in SSW 1.5 mph 3.5 mph 46 % 0.00 in
17:21 40.1 °F 21.0 °F 30.42 in SSW 1.9 mph 3.5 mph 46 % 0.00 in
17:26 39.9 °F 21.3 °F 30.41 in SW 1.2 mph 4.6 mph 47 % 0.00 in
17:31 39.7 °F 21.6 °F 30.41 in South 1.1 mph 4.0 mph 48 % 0.00 in
17:37 39.4 °F 21.8 °F 30.41 in SSE 4.1 mph 5.8 mph 49 % 0.00 in
17:42 38.9 °F 21.8 °F 30.41 in South 3.9 mph 5.8 mph 50 % 0.00 in
17:47 38.7 °F 22.1 °F 30.41 in South 1.1 mph 3.5 mph 51 % 0.00 in
17:52 38.4 °F 22.3 °F 30.41 in SSW 3.3 mph 4.6 mph 52 % 0.00 in
17:55 38.3 °F 22.6 °F 30.41 in SW 4.7 mph 8.0 mph 53 % 0.00 in
18:00 38.1 °F 22.5 °F 30.41 in SSE 3.2 mph 7.0 mph 53 % 0.00 in
18:05 37.9 °F 22.7 °F 30.41 in South 2.8 mph 3.5 mph 54 % 0.00 in
18:10 37.7 °F 23.4 °F 30.41 in SSW 4.5 mph 7.0 mph 56 % 0.00 in
18:18 37.4 °F 23.5 °F 30.41 in SSW 1.0 mph 6.0 mph 57 % 0.00 in
18:19 37.4 °F 23.5 °F 30.41 in SW 2.4 mph 7.0 mph 57 % 0.00 in
18:24 37.3 °F 23.9 °F 30.42 in SSW 3.1 mph 7.0 mph 58 % 0.00 in
18:29 37.1 °F 23.7 °F 30.41 in South 3.0 mph 4.6 mph 58 % 0.00 in
18:34 37.0 °F 24.0 °F 30.42 in SSW 1.2 mph 2.3 mph 59 % 0.00 in
18:35 37.0 °F 24.0 °F 30.41 in SSW 0.9 mph 2.3 mph 59 % 0.00 in
18:40 37.0 °F 24.0 °F 30.42 in South 2.5 mph 2.5 mph 59 % 0.00 in
18:45 36.9 °F 23.9 °F 30.42 in SSE 0.2 mph 3.5 mph 59 % 0.00 in
18:50 36.8 °F 24.2 °F 30.42 in South 2.3 mph 5.0 mph 60 % 0.00 in
18:55 36.8 °F 24.6 °F 30.41 in SSW 3.0 mph 4.6 mph 61 % 0.00 in
19:00 36.7 °F 24.5 °F 30.41 in South 1.8 mph 6.9 mph 61 % 0.00 in
19:05 36.5 °F 24.3 °F 30.41 in South 1.0 mph 3.0 mph 61 % 0.00 in
19:10 36.5 °F 24.7 °F 30.42 in South 1.4 mph 3.5 mph 62 % 0.00 in
19:15 36.4 °F 24.6 °F 30.41 in SSW 1.8 mph 5.0 mph 62 % 0.00 in
19:21 36.4 °F 25.0 °F 30.41 in SSW 2.0 mph 4.6 mph 63 % 0.00 in
19:24 36.3 °F 24.9 °F 30.42 in South 2.9 mph 4.6 mph 63 % 0.00 in
19:29 36.2 °F 25.2 °F 30.42 in South 1.8 mph 4.6 mph 64 % 0.00 in
19:32 36.1 °F 25.1 °F 30.42 in South 2.1 mph 4.6 mph 64 % 0.00 in
19:37 36.0 °F 25.4 °F 30.42 in SSW 2.3 mph 5.0 mph 65 % 0.00 in
19:42 35.9 °F 25.3 °F 30.42 in SSW 3.2 mph 6.9 mph 65 % 0.00 in
19:47 35.9 °F 25.6 °F 30.41 in South 2.3 mph 4.6 mph 66 % 0.00 in
19:52 35.8 °F 25.5 °F 30.42 in SSW 2.9 mph 3.5 mph 66 % 0.00 in
19:53 35.8 °F 25.9 °F 30.42 in South 3.8 mph 6.9 mph 67 % 0.00 in
19:56 35.8 °F 25.9 °F 30.42 in South 5.0 mph 8.1 mph 67 % 0.00 in
20:00 35.7 °F 25.8 °F 30.42 in South 2.7 mph 6.0 mph 67 % 0.00 in
20:03 35.7 °F 25.8 °F 30.42 in SSW 1.5 mph 4.6 mph 67 % 0.00 in
20:08 35.7 °F 26.2 °F 30.42 in South 2.7 mph 4.0 mph 68 % 0.00 in
20:13 35.6 °F 26.1 °F 30.42 in SSW 2.5 mph 5.8 mph 68 % 0.00 in
20:18 35.6 °F 26.4 °F 30.42 in South 0.4 mph 2.3 mph 69 % 0.00 in
20:23 35.5 °F 26.3 °F 30.42 in SSW 1.4 mph 3.5 mph 69 % 0.00 in
20:28 35.5 °F 26.3 °F 30.42 in SW 0.8 mph 2.3 mph 69 % 0.00 in
20:33 35.5 °F 26.3 °F 30.42 in SSW 0.7 mph 2.3 mph 69 % 0.00 in
20:38 35.5 °F 26.7 °F 30.42 in South 1.0 mph 3.5 mph 70 % 0.00 in
20:44 35.5 °F 26.7 °F 30.42 in South 0.5 mph 2.0 mph 70 % 0.00 in
20:49 35.5 °F 27.0 °F 30.42 in South 1.5 mph 3.5 mph 71 % 0.00 in
20:54 35.5 °F 27.4 °F 30.41 in South 1.9 mph 4.6 mph 72 % 0.00 in
20:59 35.5 °F 27.4 °F 30.42 in South 0.8 mph 3.5 mph 72 % 0.00 in
21:04 35.6 °F 27.8 °F 30.41 in South 1.7 mph 3.5 mph 73 % 0.00 in
21:09 35.8 °F 28.0 °F 30.41 in SSW 0.5 mph 4.6 mph 73 % 0.00 in
21:10 35.8 °F 28.0 °F 30.41 in South 1.7 mph 3.0 mph 73 % 0.00 in
21:15 35.9 °F 28.1 °F 30.41 in Calm   3.5 mph 73 % 0.00 in
21:20 36.1 °F 28.3 °F 30.41 in SSE 2.9 mph 3.5 mph 73 % 0.00 in
21:25 36.3 °F 28.5 °F 30.42 in Calm   3.5 mph 73 % 0.00 in
21:30 36.4 °F 28.6 °F 30.42 in South 1.4 mph 3.5 mph 73 % 0.00 in
21:35 36.6 °F 28.8 °F 30.41 in South 2.1 mph 5.8 mph 73 % 0.00 in
21:40 36.8 °F 29.3 °F 30.41 in SSW 2.0 mph 4.0 mph 74 % 0.00 in
21:45 37.0 °F 29.1 °F 30.41 in South 3.7 mph 4.6 mph 73 % 0.00 in
21:50 37.1 °F 29.2 °F 30.41 in South 2.3 mph 4.6 mph 73 % 0.00 in
21:55 37.3 °F 29.4 °F 30.41 in SSE 2.0 mph 4.6 mph 73 % 0.00 in
22:00 37.5 °F 29.6 °F 30.41 in South 2.1 mph 4.6 mph 73 % 0.00 in
22:06 37.6 °F 29.7 °F 30.41 in South 1.4 mph 3.5 mph 73 % 0.00 in
22:11 37.7 °F 29.8 °F 30.41 in SE 0.4 mph 5.0 mph 73 % 0.00 in
22:16 37.9 °F 30.0 °F 30.41 in South 0.6 mph 2.3 mph 73 % 0.00 in
22:21 38.0 °F 30.1 °F 30.41 in SSW 2.0 mph 2.3 mph 73 % 0.00 in
22:26 38.1 °F 30.2 °F 30.41 in SSW 1.3 mph 2.3 mph 73 % 0.00 in
22:31 38.2 °F 30.3 °F 30.41 in South 0.7 mph 3.5 mph 73 % 0.00 in
22:36 38.3 °F 30.4 °F 30.41 in South 1.7 mph 3.5 mph 73 % 0.00 in
22:41 38.4 °F 30.5 °F 30.41 in South 1.1 mph 3.5 mph 73 % 0.00 in
22:46 38.4 °F 30.5 °F 30.41 in South 0.5 mph 2.3 mph 73 % 0.00 in
22:51 38.5 °F 30.9 °F 30.41 in SSE 0.7 mph 2.3 mph 74 % 0.00 in
22:56 38.6 °F 31.0 °F 30.41 in Calm     74 % 0.00 in
23:01 38.7 °F 30.8 °F 30.41 in SE 0.3 mph 2.3 mph 73 % 0.00 in
23:06 38.8 °F 31.2 °F 30.41 in SSW 0.3 mph 3.0 mph 74 % 0.00 in
23:11 38.9 °F 31.3 °F 30.40 in Calm   3.5 mph 74 % 0.00 in
23:17 39.1 °F 31.5 °F 30.41 in SE 2.4 mph 3.5 mph 74 % 0.00 in
23:22 39.1 °F 31.5 °F 30.41 in Calm   1.2 mph 74 % 0.00 in
23:27 39.2 °F 31.6 °F 30.41 in SE 0.2 mph 2.3 mph 74 % 0.00 in
23:32 39.2 °F 31.6 °F 30.41 in Calm   2.3 mph 74 % 0.00 in
23:37 39.2 °F 31.6 °F 30.41 in SE 0.1 mph   74 % 0.00 in
23:42 39.3 °F 32.0 °F 30.41 in SSE 0.6 mph 3.5 mph 75 % 0.00 in
23:47 39.4 °F 32.5 °F 30.40 in SSE 0.3 mph 1.2 mph 76 % 0.00 in
23:52 39.4 °F 32.5 °F 30.40 in SSE 1.2 mph 3.5 mph 76 % 0.00 in
23:57 39.5 °F 32.9 °F 30.40 in SSE 0.1 mph 1.2 mph 77 % 0.00 in
Crab Meadow Weather
Compliments of Weather Underground - 3 mb

Script developed by  Jim McMurry - jmcmurry@mwt.net Adapted for the template by  Wim van der Kuil - Leuven-Template.eu

Recycling: Recycling 1 aluminum can saves enough energy to run your TV for 3 hours. Recycling aluminum cans saves 95% of the energy used to make cans from virgin ore.